Location: Newark
(44.2003°N, 3.2583°E)
Time: 16:27:42
(UTC+00:00)

Courier 1B Rocket - Pass Details

Date: 25 October 2019
Orbit: 920 x 1202 km, 28.2° (Epoch: 20 November)

Event Time Altitude Azimuth Distance (km) Brightness Sun altitude
Exits shadow 03:50:04 17° 184° (S) 2,135 6.6 -26.4°
Drops below altitude 10° 03:53:45 10° 148° (SSE) 2,605 7.5 -25.7°
Sets 03:57:18 0° 129° (SE) 3,563 8.6 -25.1°
